Regional Weather Roundup
Issued by NWS

Home | Current Version | Previous Version | Text Only | Print | Product List | Glossary On
Versions: 1 2 3 4 5 6 7 8 9 10 11 12 13 14 15 16 17 18 19 20 21 22 23 24 25 26 27 28 29 30 31 32 33 34 35 36 37 38 39 40 41 42 43 44 45 46 47 48 49 50
000
ASUS43 KMPX 020610
RWRMN
WEATHER ROUNDUP FOR MINNESOTA
NATIONAL WEATHER SERVICE TWIN CITIES/CHANHASSEN MN
100 AM CDT THU APR 02 2015


NOTE: "FAIR" INDICATES FEW OR NO CLOUDS BELOW 12,000 FEET WITH NO
SIGNIFICANT WEATHER AND/OR OBSTRUCTIONS TO VISIBILITY. N/A MEANS
CURRENT SKY AND/OR WEATHER CONDITIONS ARE NOT AVAILABLE.

MNZ060>063-068>070-020700-
   Twin Cities Metro

CITY           SKY/WX    TMP DP  RH WIND       PRES   REMARKS
TWIN CITIES    CLOUDY    56  49  77 W10       29.61R
6HR MIN TEMP:  55; 6HR MAX TEMP:  77; 6HR PCP:  0.26;

ST PAUL        CLOUDY    56  46  69 W13       29.60R
CRYSTAL        CLOUDY    57  44  62 W12       29.61R
BLAINE         CLOUDY    55  46  71 W10       29.61R
LAKEVILLE      CLOUDY    54  48  82 SW8       29.64R
EDEN PRAIRIE   CLOUDY    54  46  74 W9        29.62R
6HR MIN TEMP:  53; 6HR MAX TEMP:  77; 6HR PCP:  0.19;

SOUTH ST PAUL  CLOUDY    56  49  78 SW6       29.60R
LAKE ELMO      FAIR      55  46  71 W8        29.60R
$$
MNZ001>005-007-008-013>017-022>024-027-028-020700-
   Northwest Minnesota

CITY           SKY/WX    TMP DP  RH WIND       PRES   REMARKS
BEMIDJI        CLEAR     44  36  74 W13G18    29.55F
HALLOCK        CLEAR     37  34  87 W9        29.54R
ROSEAU         CLEAR     43  36  75 W7        29.52R
WARROAD        CLEAR     43  37  81 W9        29.50S
THIEF RVR FALL CLEAR     41  34  75 W8        29.57S
CROOKSTON      CLEAR     37  30  75 W9        29.59S
FOSSTON        CLEAR     37  34  87 W7        29.58F
DETROIT LAKES  CLEAR     43  34  70 NW9       29.64R
MOORHEAD       PTCLDY    45  32  61 W5        29.66R
PARK RAPIDS    CLEAR     44  35  70 NW12      29.59R
MAHNOMEN       FAIR      40  33  76 W9        29.60S
$$
MNZ006-009>011-018-025>026-020700-
   North Central Minnesota

CITY           SKY/WX    TMP DP  RH WIND       PRES   REMARKS
BAUDETTE       PTCLDY    44  36  73 W13G21    29.49R
FLAG ISLAND    MOCLDY    43  37  81 W17       29.45R
INTL FALLS     CLOUDY    48  40  73 W15G22    29.43S
6HR MIN TEMP:  44; 6HR MAX TEMP:  59;

WASKISH        PTCLDY    39  36  87 SW9       29.53S
BIG FORK       PTCLDY    48  37  66 W9G20     29.50S
LONGVILLE      CLEAR     46  37  71 W12G20    29.56R
GRAND RAPIDS   MOCLDY    48  39  71 W13G20    29.53R
CRANE LAKE     PTCLDY    48  37  66 W5        29.44F
ORR            PTCLDY    46  37  71 W7        29.43S
COOK           MOCLDY    48  39  71 W9G18     29.46F
WALKER         FAIR      46  35  67 NW12G17   29.57R
$$
MNZ012-019>021-037-020700-
   Northeast Minnesota

CITY           SKY/WX    TMP DP  RH WIND       PRES   REMARKS
DULUTH         CLOUDY    50  39  66 W10       29.49R
6HR MIN TEMP:  36; 6HR MAX TEMP:  52;

ELY            MOCLDY    45  37  76 SW7       29.44S
HIBBING        CLOUDY    51  40  65 W8        29.48S
EVELETH        MOCLDY    45  36  70 SW6       29.48S
DULUTH HARBOR  CLOUDY    36  34  93 S9        29.49F
TWO HARBORS    CLOUDY    52  43  71 W10G16    29.43F
SILVER BAY     CLOUDY    37  36  93 CALM      29.43F
GRAND MARAIS     N/A     35  32  88 CALM      29.42S
G MARAIS ARPRT CLOUDY    43  34  70 SW7       29.42S
$$
MNZ029>031-032-039>041-046>048-054>057-064-020700-
   West Central Minnesota

CITY           SKY/WX    TMP DP  RH WIND       PRES   REMARKS
FERGUS FALLS   CLEAR     41  30  65 NW5       29.67R
WHEATON        CLEAR     41  30  65 W7        29.72R
MORRIS         CLEAR     43  34  70 NW6       29.69R
ALEXANDRIA     PTCLDY    47  33  58 NW9       29.68R
ELBOW LAKE     FAIR      40  32  74 NW5       29.67R
WADENA         CLEAR     45  34  65 NW9       29.62R
GLENWOOD       PTCLDY    46  34  61 NW10      29.68R
APPLETON       CLEAR     45  34  65 W7        29.71R
BENSON         PTCLDY    43  34  70 N5        29.71R
ORTONVILLE     CLEAR     48  32  53 W7        29.71R
MADISON        PTCLDY    46  32  57 W5        29.73R
WILLMAR        FAIR      48  36  61 NW9       29.73R
$$
MNZ033>034-036-042>043-049>051-058-059-020700-
   Central Minnesota

CITY           SKY/WX    TMP DP  RH WIND       PRES   REMARKS
ST CLOUD       CLOUDY    51  35  54 NW17      29.65R
6HR MIN TEMP:  51; 6HR MAX TEMP:  67; 6HR PCP: TRACE;

SAUK CENTRE    FAIR      49  34  58 NW9       29.67R
PAYNESVILLE    MOCLDY    46  36  67 SW3       29.69R
AITKIN         MOCLDY    54  43  66 W8        29.56R
PINE RIVER     CLEAR     46  37  71 NW6G18    29.63R
BRAINERD       PTCLDY    48  36  63 NW10G21   29.61R
STAPLES        PTCLDY    45  34  65 NW9G16    29.63R
LONG PRAIRIE   FAIR      46  34  61 W12G18    29.66R
LITTLE FALLS   MOCLDY    50  32  50 NW12      29.65R
LITCHFIELD     CLOUDY    54  41  62 CALM      29.69R
BUFFALO        CLOUDY    55  41  58 W14       29.67R
MAPLE LAKE     CLOUDY    54  42  63 NW12      29.68R
$$
MNZ037-044-045-052-053-020700-
   East Central Minnesota

CITY           SKY/WX    TMP DP  RH WIND       PRES   REMARKS
PRINCETON      CLOUDY    54  43  66 W9        29.64R
MORA           CLOUDY    50  39  66 W5        29.60R
CAMBRIDGE      CLOUDY    57  43  58 W9G17     29.59R
RUSH CITY      CLOUDY    53  42  66 SW5       29.58R
MOOSE LAKE     CLOUDY    54  41  62 CALM      29.52S
HINCKLEY       FAIR      54  43  66 W12       29.56R
CLOQUET        CLOUDY    48  37  66 W8        29.51R
MCGREGOR       MOCLDY    50  43  76 W5        29.55R
$$
MNZ071>073-080-081-089-090-097-098-020700-
   Southwest Minnesota

CITY           SKY/WX    TMP DP  RH WIND       PRES   REMARKS
MONTEVIDEO     PTCLDY    50  36  57 N8        29.73R
GRANITE FALLS  MOCLDY    51  34  53 W9        29.74R
CANBY          MOCLDY    48  32  54 W8        29.74R
MARSHALL       CLOUDY    52  30  43 NW10      29.74R
REDWOOD FALLS  CLOUDY    55  36  48 NW14      29.72R
OLIVIA         MOCLDY    46  37  71 NW8       29.71R
PIPESTONE      CLOUDY    52  30  43 N6        29.76R
WORTHINGTON    CLOUDY    52  36  54 NW16      29.75R
JACKSON        CLOUDY    55  37  50 N13G21    29.73R
TRACY          CLOUDY    55  33  44 NW13      29.75R
SLAYTON        CLOUDY    51  32  47 NW9       29.77R
$$
MNZ065>067-074>077-082>085-091>093-020700-
   South Central Minnesota

CITY           SKY/WX    TMP DP  RH WIND       PRES   REMARKS
MANKATO        CLOUDY    54  46  76 W8        29.69R
NEW ULM        CLOUDY    54  37  54 NW18      29.69R
ST JAMES       CLOUDY    54  43  66 W10       29.71R
FAIRMONT       CLOUDY    55  43  62 NW10      29.69S
GLENCOE        CLOUDY    54  46  74 W12       29.66R
FARIBAULT      CLOUDY    54  54 100 SW7       29.66R
OWATONNA       CLOUDY    54  52  94 SW8       29.67R
WASECA         RAIN      54  52  94 SW7       29.69R
ALBERT LEA     RAIN      55  55 100 SW7       29.69R
$$
MNZ078>079-086>088-094>096-020700-
   Southeast Minnesota

CITY           SKY/WX    TMP DP  RH WIND       PRES   REMARKS
ROCHESTER      RAIN      54  52  93 NW7       29.65F FOG
6HR MIN TEMP:  54; 6HR MAX TEMP:  70; 6HR PCP:  0.37;

RED WING       LGT RAIN  55  55 100 W13G20    29.62R
DODGE CENTER   LGT RAIN  55  54  94 S5        29.67R
WINONA         LGT RAIN  55  54  94 CALM      29.66S
AUSTIN         RAIN      55  54  94 SW9       29.67F
PRESTON        LGT RAIN  55  53  93 SW8       29.66F
$$
ABBREVIATIONS USED IN REMARKS
   TC - TEMPERATURES IN CELSIUS
  WCI - WIND CHILL INDEX
   HX - HEAT INDEX
  VSB - VISIBILITY
$$



USA.gov is the U.S. government's official web portal to all federal, state and local government web resources and services.